EXPRESS AMU-3

Last updated on Sun Nov 16 2025 00:03:44 GMT+0000 (Coordinated Universal Time)

1 50002U 21123B 25318.56411374 -.00000319 00000+0 00000+0 0 9998 2 50002 0.0220 281.4811 0000199 280.7510 157.7887 1.00273002 4888
UTC large
Height (km)
Speed (km/s)
/
Latitude / Longitude
Inclination (degrees)
Orbital Period (minutes)
Azimuth
Elevation
Range (km)
Doppler Factor

Next 0 passes for location: London (51.5072 / 0.1276)

Sorry there are no passes over London.